CW6099 Weather Reports


Display with metric or nautical units.
time (UTC)temp
F
wind
direction
speed
MPH
gust
MPH
rain 1hr
in
rain 24hr
in
rain mn
in
humidity
%
barometer
mb
20260905211638 93 99 13.0 23.0 0.00 0.00 0.00 47 1013.8
20260905211251 93 202 13.0 26.0 0.00 0.00 0.00 47 1014.0
20260905211148 93 212 12.0 26.0 0.00 0.00 0.00 46 1014.0
20260905210638 93 281 10.0 26.0 0.00 0.00 0.00 47 1014.1
20260905210254 93 145 15.0 24.0 0.00 0.00 0.00 46 1014.2
20260905210146 93 251 13.0 23.0 0.00 0.00 0.00 48 1014.2
20260905205636 93 142 14.0 22.0 0.00 0.00 0.00 49 1014.3
20260905205253 93 295 11.0 24.0 0.00 0.00 0.00 50 1014.3
20260905205146 93 98 11.0 24.0 0.00 0.00 0.00 50 1014.4
20260905204636 93 210 15.0 24.0 0.00 0.00 0.00 49 1014.4
20260905204253 92 115 11.0 25.0 0.00 0.00 0.00 50 1014.5
20260905204147 92 157 14.0 25.0 0.00 0.00 0.00 49 1014.5
20260905203636 93 141 12.0 23.0 0.00 0.00 0.00 49 1014.7
20260905203251 92 144 13.0 22.0 0.00 0.00 0.00 49 1014.8
20260905203203 92 173 15.0 22.0 0.00 0.00 0.00 50 1015.0
20260905202650 92 156 11.0 20.0 0.00 0.00 0.00 50 1014.8
20260905202247 92 153 11.0 20.0 0.00 0.00 0.00 51 1014.9
20260905202144 92 141 13.0 22.0 0.00 0.00 0.00 51 1014.9
20260905201652 91 130 15.0 23.0 0.00 0.00 0.00 50 1015.0
20260905201249 92 157 13.0 23.0 0.00 0.00 0.00 49 1015.0
20260905201142 92 146 15.0 23.0 0.00 0.00 0.00 48 1015.1
20260905200652 92 127 11.0 18.0 0.00 0.00 0.00 49 1015.0
20260905200250 92 121 13.0 18.0 0.00 0.00 0.00 49 1015.0
20260905200142 92 154 11.0 17.0 0.00 0.00 0.00 49 1015.1
20260905195651 92 136 11.0 21.0 0.00 0.00 0.00 48 1015.1
20260905195247 93 130 14.0 21.0 0.00 0.00 0.00 47 1015.1
20260905195139 93 152 14.0 20.0 0.00 0.00 0.00 47 1015.1
20260905194708 93 135 11.0 18.0 0.00 0.00 0.00 48 1015.1
20260905194242 93 144 10.0 18.0 0.00 0.00 0.00 49 1015.1
20260905194155 93 157 10.0 18.0 0.00 0.00 0.00 49 1015.1
20260905193649 93 121 9.0 19.0 0.00 0.00 0.00 48 1015.1
20260905193242 93 141 13.0 19.0 0.00 0.00 0.00 48 1015.1
20260905193138 93 163 12.0 19.0 0.00 0.00 0.00 48 1015.1
20260905192707 93 157 12.0 22.0 0.00 0.00 0.00 47 1015.1
20260905192241 93 175 16.0 21.0 0.00 0.00 0.00 47 1015.2
20260905192155 93 151 15.0 19.0 0.00 0.00 0.00 47 1015.1
20260905191644 93 158 10.0 20.0 0.00 0.00 0.00 47 1015.2
20260905191241 93 146 12.0 20.0 0.00 0.00 0.00 47 1015.2
20260905191153 93 134 12.0 20.0 0.00 0.00 0.00 46 1015.1
20260905190644 93 144 11.0 20.0 0.00 0.00 0.00 46 1015.2
20260905190240 93 112 10.0 15.0 0.00 0.00 0.00 45 1015.2
20260905190151 93 142 11.0 15.0 0.00 0.00 0.00 47 1015.3
20260905185641 93 162 9.0 18.0 0.00 0.00 0.00 47 1015.3
20260905185238 93 155 11.0 21.0 0.00 0.00 0.00 46 1015.3
20260905185151 93 150 13.0 21.0 0.00 0.00 0.00 47 1015.3
20260905184643 92 150 12.0 21.0 0.00 0.00 0.00 48 1015.4
20260905184239 92 131 12.0 19.0 0.00 0.00 0.00 48 1015.4
20260905184151 92 152 9.0 16.0 0.00 0.00 0.00 48 1015.4
20260905183642 91 49 12.0 21.0 0.00 0.00 0.00 49 1015.4
20260905183238 91 113 13.0 21.0 0.00 0.00 0.00 49 1015.4
20260905183151 91 143 14.0 21.0 0.00 0.00 0.00 49 1015.4
20260905182641 91 257 15.0 19.0 0.00 0.00 0.00 48 1015.4
20260905182239 91 157 10.0 15.0 0.00 0.00 0.00 50 1015.5
20260905182151 91 165 9.0 16.0 0.00 0.00 0.00 48 1015.5
20260905181641 90 153 10.0 16.0 0.00 0.00 0.00 49 1015.5
20260905181317 90 171 12.0 14.0 0.00 0.00 0.00 49 1015.5
20260905181148 90 166 10.0 15.0 0.00 0.00 0.00 53 1015.4
20260905180657 90 123 8.0 16.0 0.00 0.00 0.00 51 1015.5
20260905180307 90 155 10.0 16.0 0.00 0.00 0.00 52 1015.6
20260905180159 90 142 11.0 16.0 0.00 0.00 0.00 51 1015.6
20260905175707 89 190 7.0 17.0 0.00 0.00 0.00 52 1015.6
20260905175242 89 128 12.0 17.0 0.00 0.00 0.00 53 1015.6
20260905175215 89 135 13.0 17.0 0.00 0.00 0.00 53 1015.7
20260905174643 89 198 12.0 17.0 0.00 0.00 0.00 54 1015.7
20260905174240 88 155 9.0 16.0 0.00 0.00 0.00 53 1015.6
20260905174150 88 130 10.0 16.0 0.00 0.00 0.00 53 1015.6
20260905173643 88 157 10.0 17.0 0.00 0.00 0.00 53 1015.6
20260905173317 88 163 11.0 17.0 0.00 0.00 0.00 53 1015.7
20260905173152 88 165 13.0 17.0 0.00 0.00 0.00 54 1015.8
20260905172642 88 140 12.0 16.0 0.00 0.00 0.00 53 1015.8
20260905172257 88 146 11.0 17.0 0.00 0.00 0.00 53 1015.8
20260905172148 88 155 10.0 16.0 0.00 0.00 0.00 54 1015.8
20260905171637 88 113 9.0 16.0 0.00 0.00 0.00 54 1015.8
20260905171253 88 155 11.0 19.0 0.00 0.00 0.00 53 1015.9
20260905171206 88 173 10.0 19.0 0.00 0.00 0.00 52 1015.9
20260905170714 89 171 12.0 19.0 0.00 0.00 0.00 53 1015.8
20260905170250 88 153 10.0 19.0 0.00 0.00 0.00 53 1015.8
20260905170203 88 184 11.0 19.0 0.00 0.00 0.00 53 1015.9
20260905165651 88 157 13.0 19.0 0.00 0.00 0.00 54 1015.9
20260905165248 87 126 11.0 18.0 0.00 0.00 0.00 55 1015.8
20260905165142 87 149 11.0 18.0 0.00 0.00 0.00 54 1015.8
20260905164651 87 152 12.0 19.0 0.00 0.00 0.00 56 1015.8
20260905164247 87 89 8.0 16.0 0.00 0.00 0.00 56 1015.9
20260905164159 87 160 10.0 16.0 0.00 0.00 0.00 56 1015.9
20260905163648 86 157 10.0 14.0 0.00 0.00 0.00 57 1015.9
20260905163307 86 137 10.0 15.0 0.00 0.00 0.00 56 1015.8
20260905163139 86 163 9.0 15.0 0.00 0.00 0.00 56 1015.9
20260905162648 86 144 9.0 16.0 0.00 0.00 0.00 55 1015.9
20260905162245 87 217 8.0 16.0 0.00 0.00 0.00 54 1015.9
20260905162202 87 15 10.0 16.0 0.00 0.00 0.00 56 1015.8
20260905161711 87 229 9.0 20.0 0.00 0.00 0.00 56 1015.8
20260905161242 87 305 8.0 20.0 0.00 0.00 0.00 56 1015.9
20260905161200 87 11 12.0 20.0 0.00 0.00 0.00 56 1015.9
20260905160709 86 136 8.0 14.0 0.00 0.00 0.00 57 1015.8
20260905160300 86 169 10.0 16.0 0.00 0.00 0.00 58 1015.8
20260905160155 86 159 10.0 16.0 0.00 0.00 0.00 56 1015.8
20260905155645 85 190 11.0 16.0 0.00 0.00 0.00 56 1015.8
20260905155241 85 171 11.0 17.0 0.00 0.00 0.00 58 1015.9
20260905155154 84 178 10.0 17.0 0.00 0.00 0.00 58 1015.9
20260905154644 83 175 8.0 14.0 0.00 0.00 0.00 61 1015.9
20260905154301 83 169 8.0 12.0 0.00 0.00 0.00 62 1015.8
20260905154153 83 189 8.0 12.0 0.00 0.00 0.00 62 1015.9
20260905153643 83 157 8.0 12.0 0.00 0.00 0.00 61 1015.8
20260905153258 82 168 8.0 15.0 0.00 0.00 0.00 62 1015.8
20260905153150 82 145 8.0 15.0 0.00 0.00 0.00 61 1015.8
20260905152640 82 176 8.0 15.0 0.00 0.00 0.00 63 1015.8
20260905152256 82 153 9.0 14.0 0.00 0.00 0.00 65 1015.8
20260905152209 82 205 7.0 14.0 0.00 0.00 0.00 64 1015.8
20260905151639 82 150 7.0 11.0 0.00 0.00 0.00 64 1015.9
20260905151255 81 164 5.0 9.0 0.00 0.00 0.00 64 1015.8
20260905151152 81 147 4.0 9.0 0.00 0.00 0.00 64 1015.8
20260905150700 81 175 5.0 9.0 0.00 0.00 0.00 63 1015.8
20260905150251 81 173 7.0 10.0 0.00 0.00 0.00 62 1015.8
20260905150149 81 165 7.0 10.0 0.00 0.00 0.00 62 1015.8
20260905145639 81 187 6.0 12.0 0.00 0.00 0.00 62 1015.6
20260905145252 82 161 7.0 12.0 0.00 0.00 0.00 61 1015.5
20260905145145 82 159 7.0 12.0 0.00 0.00 0.00 61 1015.5
20260905144654 82 205 10.0 12.0 0.00 0.00 0.00 62 1015.4
20260905144251 82 173 6.0 12.0 0.00 0.00 0.00 63 1015.5
20260905144204 82 175 5.0 11.0 0.00 0.00 0.00 64 1015.5
20260905143650 81 153 7.0 10.0 0.00 0.00 0.00 65 1015.4
20260905143247 80 171 6.0 13.0 0.00 0.00 0.00 66 1015.3
20260905143140 80 184 7.0 13.0 0.00 0.00 0.00 65 1015.3
20260905142649 80 187 9.0 13.0 0.00 0.00 0.00 66 1015.2
20260905142246 80 188 8.0 15.0 0.00 0.00 0.00 66 1015.1
20260905142139 80 187 7.0 15.0 0.00 0.00 0.00 67 1015.2
20260905141653 79 188 11.0 15.0 0.00 0.00 0.00 66 1015.1
20260905141245 79 173 8.0 15.0 0.00 0.00 0.00 67 1015.1
20260905141142 79 192 10.0 15.0 0.00 0.00 0.00 67 1015.1
20260905140651 78 211 7.0 13.0 0.00 0.00 0.00 68 1014.9
20260905140248 78 230 9.0 13.0 0.00 0.00 0.00 69 1014.8
20260905140139 77 205 7.0 13.0 0.00 0.00 0.00 69 1014.8
20260905135650 77 240 7.0 11.0 0.00 0.00 0.00 69 1014.8
20260905135247 76 224 9.0 13.0 0.00 0.00 0.00 71 1014.7
20260905135200 76 229 9.0 13.0 0.00 0.00 0.00 71 1014.8
20260905134708 75 200 7.0 10.0 0.00 0.00 0.00 72 1014.7
20260905134243 74 230 7.0 11.0 0.00 0.00 0.00 73 1014.7
20260905134216 74 225 6.0 11.0 0.00 0.00 0.00 74 1014.7
20260905133645 73 204 6.0 11.0 0.00 0.00 0.00 74 1014.7
20260905133242 72 237 6.0 9.0 0.00 0.00 0.00 75 1014.8
20260905133156 72 230 6.0 9.0 0.00 0.00 0.00 76 1014.8
20260905132645 71 230 4.0 6.0 0.00 0.00 0.00 77 1014.9
20260905132241 71 250 2.0 4.0 0.00 0.00 0.00 78 1015.0
20260905132138 71 281 2.0 4.0 0.00 0.00 0.00 78 1015.0
20260905131648 71 264 2.0 7.0 0.00 0.00 0.00 77 1014.9
20260905131245 71 257 3.0 7.0 0.00 0.00 0.00 77 1014.7
20260905131158 71 226 4.0 9.0 0.00 0.00 0.00 77 1014.7
20260905130646 71 211 5.0 10.0 0.00 0.00 0.00 76 1014.5
20260905130242 71 241 6.0 10.0 0.00 0.00 0.00 77 1014.5
20260905130215 71 209 6.0 10.0 0.00 0.00 0.00 77 1014.4
20260905125704 70 197 6.0 10.0 0.00 0.00 0.00 77 1014.4
20260905125238 70 224 7.0 11.0 0.00 0.00 0.00 78 1014.3
20260905125151 70 207 8.0 11.0 0.00 0.00 0.00 79 1014.3
20260905124640 69 240 8.0 11.0 0.00 0.00 0.00 79 1014.3
20260905124256 69 224 7.0 11.0 0.00 0.00 0.00 80 1014.1
20260905124149 69 234 8.0 11.0 0.00 0.00 0.00 80 1014.2
20260905123639 69 211 7.0 10.0 0.00 0.00 0.00 80 1014.1
20260905123256 69 217 7.0 10.0 0.00 0.00 0.00 80 1014.0
20260905123149 69 242 7.0 10.0 0.00 0.00 0.00 80 1014.0
20260905122643 69 227 8.0 10.0 0.00 0.00 0.00 80 1014.0
20260905122316 69 234 8.0 10.0 0.00 0.00 0.00 80 1014.0
20260905122151 69 224 8.0 11.0 0.00 0.00 0.00 80 1013.9
20260905121638 69 211 8.0 11.0 0.00 0.00 0.00 80 1013.9
20260905121310 69 228 8.0 11.0 0.00 0.00 0.00 80 1013.9
20260905121146 69 231 8.0 11.0 0.00 0.00 0.00 80 1013.9
20260905120657 69 226 8.0 10.0 0.00 0.00 0.00 81 1013.9
20260905120254 69 205 7.0 9.0 0.00 0.00 0.00 81 1013.9
20260905120145 69 224 7.0 9.0 0.00 0.00 0.00 81 1013.9
20260905115654 69 232 7.0 10.0 0.00 0.00 0.00 81 1013.9
20260905115251 69 205 6.0 11.0 0.00 0.00 0.00 80 1014.0
20260905115204 69 192 7.0 11.0 0.00 0.00 0.00 81 1014.0
20260905114654 69 209 7.0 10.0 0.00 0.00 0.00 81 1014.0
20260905114251 69 231 8.0 10.0 0.00 0.00 0.00 82 1014.0
20260905114143 69 211 8.0 10.0 0.00 0.00 0.00 82 1014.0
20260905113653 69 204 8.0 10.0 0.00 0.00 0.00 82 1014.1
20260905113250 69 168 7.0 9.0 0.00 0.00 0.00 81 1014.1
20260905113143 69 191 7.0 9.0 0.00 0.00 0.00 81 1014.3
20260905112653 69 206 6.0 7.0 0.00 0.00 0.00 80 1014.3
20260905112249 70 193 6.0 7.0 0.00 0.00 0.00 80 1014.4
20260905112146 70 206 6.0 7.0 0.00 0.00 0.00 80 1014.4
20260905111656 70 197 6.0 7.0 0.00 0.00 0.00 79 1014.4
20260905111252 70 200 6.0 8.0 0.00 0.00 0.00 79 1014.3
20260905111145 70 211 6.0 8.0 0.00 0.00 0.00 79 1014.4
20260905110655 71 193 6.0 9.0 0.00 0.00 0.00 78 1014.4
20260905110252 71 190 7.0 10.0 0.00 0.00 0.00 77 1014.4
20260905110144 71 177 8.0 10.0 0.00 0.00 0.00 77 1014.5
20260905105655 72 182 8.0 11.0 0.00 0.00 0.00 76 1014.4
20260905105249 72 196 8.0 11.0 0.00 0.00 0.00 76 1014.5
20260905105142 72 191 8.0 11.0 0.00 0.00 0.00 75 1014.5
20260905104651 72 164 8.0 10.0 0.00 0.00 0.00 75 1014.6
20260905104248 72 177 8.0 11.0 0.00 0.00 0.00 74 1014.6
20260905104146 72 178 7.0 11.0 0.00 0.00 0.00 74 1014.7
20260905103655 72 173 9.0 11.0 0.00 0.00 0.00 75 1014.5
20260905103252 72 188 10.0 12.0 0.00 0.00 0.00 74 1014.4
20260905103146 72 207 9.0 12.0 0.00 0.00 0.00 74 1014.5
20260905102655 72 179 8.0 11.0 0.00 0.00 0.00 74 1014.6
20260905102252 72 146 8.0 11.0 0.00 0.00 0.00 73 1014.7
20260905102144 72 155 8.0 11.0 0.00 0.00 0.00 73 1014.7
20260905101715 73 192 7.0 10.0 0.00 0.00 0.00 72 1014.6
20260905101251 73 161 6.0 10.0 0.00 0.00 0.00 71 1014.7
20260905101144 73 131 6.0 10.0 0.00 0.00 0.00 71 1014.7
20260905100654 74 154 7.0 9.0 0.00 0.00 0.00 70 1014.8
20260905100309 74 169 7.0 9.0 0.00 0.00 0.00 69 1014.7
20260905100201 74 184 7.0 10.0 0.00 0.00 0.00 69 1014.7
20260905095648 74 173 7.0 10.0 0.00 0.00 0.00 68 1014.6
20260905095246 75 188 7.0 10.0 0.00 0.00 0.00 68 1014.5
20260905095138 75 194 7.0 10.0 0.00 0.00 0.00 68 1014.6
20260905094652 75 182 7.0 13.0 0.00 0.00 0.00 68 1014.6
20260905094244 75 196 8.0 13.0 0.00 0.00 0.00 67 1014.6
20260905094141 75 179 9.0 13.0 0.00 0.00 0.00 67 1014.5
20260905093650 75 180 8.0 14.0 0.00 0.00 0.00 67 1014.6
20260905093245 76 153 8.0 13.0 0.00 0.00 0.00 67 1014.7
20260905093138 76 190 9.0 15.0 0.00 0.00 0.00 67 1014.7
20260905092648 76 189 10.0 16.0 0.00 0.00 0.00 67 1014.7
20260905092244 76 178 11.0 16.0 0.00 0.00 0.00 66 1014.6
20260905092217 76 197 11.0 16.0 0.00 0.00 0.00 66 1014.6
20260905091647 76 175 9.0 14.0 0.00 0.00 0.00 66 1014.6
20260905091244 76 205 9.0 14.0 0.00 0.00 0.00 66 1014.7
20260905091157 76 192 9.0 14.0 0.00 0.00 0.00 66 1014.7
20260905090646 76 184 10.0 16.0 0.00 0.00 0.00 66 1014.7
20260905090242 76 180 10.0 16.0 0.00 0.00 0.00 66 1014.7
20260905090216 76 178 10.0 16.0 0.00 0.00 0.00 66 1014.6
20260905085705 76 181 10.0 18.0 0.00 0.00 0.00 66 1014.6
20260905085305 76 186 11.0 19.0 0.00 0.00 0.00 66 1014.7
20260905085213 76 205 11.0 19.0 0.00 0.00 0.00 66 1014.6
20260905084643 76 169 11.0 19.0 0.00 0.00 0.00 66 1014.7
20260905084239 76 193 10.0 14.0 0.00 0.00 0.00 66 1014.8
20260905084152 76 146 10.0 17.0 0.00 0.00 0.00 66 1014.8
20260905083646 75 187 10.0 17.0 0.00 0.00 0.00 66 1014.8
20260905083243 75 178 11.0 18.0 0.00 0.00 0.00 66 1014.8
20260905083156 75 192 11.0 18.0 0.00 0.00 0.00 65 1014.8
20260905082645 75 182 10.0 18.0 0.00 0.00 0.00 65 1014.8
20260905082306 75 225 10.0 16.0 0.00 0.00 0.00 65 1014.9
20260905082153 75 162 11.0 16.0 0.00 0.00 0.00 65 1014.9
20260905081644 76 207 10.0 15.0 0.00 0.00 0.00 64 1014.9
20260905081301 75 171 11.0 16.0 0.00 0.00 0.00 64 1014.9
20260905081152 75 159 10.0 16.0 0.00 0.00 0.00 64 1014.9
20260905080640 75 180 10.0 16.0 0.00 0.00 0.00 64 1014.9
20260905080256 75 210 11.0 18.0 0.00 0.00 0.00 64 1014.9
20260905080150 75 207 11.0 18.0 0.00 0.00 0.00 64 1014.9
20260905075639 75 200 11.0 17.0 0.00 0.00 0.00 64 1014.9
20260905075256 75 170 12.0 17.0 0.00 0.00 0.00 64 1014.9
20260905075149 75 199 11.0 17.0 0.00 0.00 0.00 64 1014.8
20260905074643 75 217 13.0 22.0 0.00 0.00 0.00 64 1014.8
20260905074240 75 202 13.0 22.0 0.00 0.00 0.00 64 1015.0
20260905074213 75 202 13.0 22.0 0.00 0.00 0.00 64 1015.0
20260905073642 75 175 13.0 21.0 0.00 0.00 0.00 65 1015.0
20260905073238 75 182 13.0 21.0 0.00 0.00 0.00 65 1015.0
20260905073151 75 204 13.0 21.0 0.00 0.00 0.00 65 1014.9
20260905072641 75 203 13.0 21.0 0.00 0.00 0.00 65 1015.0
20260905072257 75 203 12.0 22.0 0.00 0.00 0.00 66 1015.0
20260905072150 75 204 12.0 21.0 0.00 0.00 0.00 66 1015.0
20260905071659 75 219 14.0 20.0 0.00 0.00 0.00 67 1015.0
20260905071314 75 199 13.0 19.0 0.00 0.00 0.00 67 1015.0
20260905071146 75 213 13.0 19.0 0.00 0.00 0.00 67 1015.0
20260905070656 75 226 11.0 15.0 0.00 0.00 0.00 68 1015.0
20260905070313 74 218 10.0 14.0 0.00 0.00 0.00 68 1014.9
20260905070145 74 188 10.0 13.0 0.00 0.00 0.00 68 1014.9
20260905065715 74 238 9.0 12.0 0.00 0.00 0.00 68 1014.8
20260905065249 74 200 7.0 12.0 0.00 0.00 0.00 68 1014.9
20260905065139 74 250 8.0 12.0 0.00 0.00 0.00 68 1014.9
20260905064653 74 187 8.0 12.0 0.00 0.00 0.00 68 1015.0
20260905064245 74 175 8.0 12.0 0.00 0.00 0.00 68 1015.1
20260905064142 74 194 8.0 12.0 0.00 0.00 0.00 68 1015.0
20260905063652 75 166 7.0 11.0 0.00 0.00 0.00 67 1015.0
20260905063249 75 189 8.0 11.0 0.00 0.00 0.00 67 1015.0
20260905063141 75 186 8.0 11.0 0.00 0.00 0.00 67 1015.1
20260905062650 75 192 8.0 11.0 0.00 0.00 0.00 66 1014.9
20260905062247 75 167 6.0 12.0 0.00 0.00 0.00 65 1014.8
20260905062140 75 181 7.0 12.0 0.00 0.00 0.00 65 1014.8
20260905061648 75 194 8.0 12.0 0.00 0.00 0.00 64 1014.7
20260905061245 76 178 8.0 14.0 0.00 0.00 0.00 63 1014.8
20260905061157 76 207 8.0 17.0 0.00 0.00 0.00 63 1014.8
20260905060647 76 175 10.0 16.0 0.00 0.00 0.00 62 1014.8
20260905060244 76 166 12.0 19.0 0.00 0.00 0.00 61 1014.7
20260905060142 76 188 12.0 20.0 0.00 0.00 0.00 61 1014.8
20260905055650 76 183 14.0 20.0 0.00 0.00 0.00 59 1014.8
20260905055246 76 153 12.0 17.0 0.00 0.00 0.00 59 1014.8
20260905055139 76 168 11.0 17.0 0.00 0.00 0.00 59 1014.8
20260905054648 76 160 12.0 17.0 0.00 0.00 0.00 59 1014.8
20260905054245 76 160 10.0 17.0 0.00 0.00 0.00 59 1014.7
20260905054157 76 157 11.0 17.0 0.00 0.00 0.00 59 1014.7
20260905053644 76 182 12.0 18.0 0.00 0.00 0.00 60 1014.7
20260905053241 75 153 11.0 16.0 0.00 0.00 0.00 61 1014.5
20260905053152 75 173 11.0 15.0 0.00 0.00 0.00 61 1014.5
20260905052721 74 165 9.0 13.0 0.00 0.00 0.00 62 1014.5
20260905052313 74 181 9.0 13.0 0.00 0.00 0.00 63 1014.5
20260905052145 74 178 10.0 14.0 0.00 0.00 0.00 63 1014.5
20260905051653 74 167 10.0 12.0 0.00 0.00 0.00 64 1014.4
20260905051310 74 178 9.0 11.0 0.00 0.00 0.00 65 1014.4
20260905051141 74 186 8.0 10.0 0.00 0.00 0.00 65 1014.4
20260905050649 74 159 8.0 11.0 0.00 0.00 0.00 66 1014.3
20260905050245 73 171 8.0 11.0 0.00 0.00 0.00 66 1014.4
20260905050142 73 184 8.0 11.0 0.00 0.00 0.00 66 1014.3
20260905045653 73 157 7.0 11.0 0.00 0.00 0.00 66 1014.2
20260905045247 73 149 8.0 11.0 0.00 0.00 0.00 65 1014.3
20260905045140 73 155 8.0 10.0 0.00 0.00 0.00 65 1014.3
20260905044710 73 147 8.0 11.0 0.00 0.00 0.00 64 1014.4
20260905044245 73 178 7.0 10.0 0.00 0.00 0.00 64 1014.5
20260905044158 73 154 7.0 10.0 0.00 0.00 0.00 64 1014.5
20260905043647 73 170 8.0 10.0 0.00 0.00 0.00 64 1014.5
20260905043245 73 194 9.0 12.0 0.00 0.00 0.00 64 1014.5
20260905043217 74 169 8.0 11.0 0.00 0.00 0.00 64 1014.5
20260905042646 74 164 8.0 10.0 0.00 0.00 0.00 63 1014.5
20260905042306 74 151 7.0 9.0 0.00 0.00 0.00 62 1014.6
20260905042154 74 166 7.0 9.0 0.00 0.00 0.00 62 1014.6
20260905041645 75 167 6.0 8.0 0.00 0.00 0.00 61 1014.7
20260905041242 75 182 6.0 9.0 0.00 0.00 0.00 61 1014.7
20260905041153 75 171 7.0 8.0 0.00 0.00 0.00 61 1014.8
20260905040648 76 171 7.0 9.0 0.00 0.00 0.00 60 1014.8
20260905040300 76 168 7.0 11.0 0.00 0.00 0.00 60 1014.8
20260905040155 76 166 8.0 11.0 0.00 0.00 0.00 60 1014.8
20260905035645 76 163 8.0 14.0 0.00 0.00 0.00 59 1014.8
20260905035301 76 178 9.0 14.0 0.00 0.00 0.00 59 1014.8
20260905035153 76 181 9.0 14.0 0.00 0.00 0.00 60 1014.7
20260905034704 76 152 9.0 14.0 0.00 0.00 0.00 60 1014.8
20260905034238 76 171 7.0 10.0 0.00 0.00 0.00 60 1014.8
20260905034151 76 161 6.0 10.0 0.00 0.00 0.00 60 1014.8
20260905033642 77 131 7.0 10.0 0.00 0.00 0.00 59 1014.8
20260905033258 77 161 7.0 10.0 0.00 0.00 0.00 58 1014.9
20260905033209 77 157 8.0 10.0 0.00 0.00 0.00 58 1014.8
20260905032657 77 151 7.0 14.0 0.00 0.00 0.00 58 1014.8
20260905032251 77 136 9.0 14.0 0.00 0.00 0.00 58 1014.7
20260905032144 77 149 9.0 14.0 0.00 0.00 0.00 58 1014.7
20260905031652 77 168 9.0 14.0 0.00 0.00 0.00 60 1014.7
20260905031248 76 146 9.0 14.0 0.00 0.00 0.00 61 1014.6
20260905031159 76 139 9.0 14.0 0.00 0.00 0.00 61 1014.7
20260905030655 76 126 9.0 14.0 0.00 0.00 0.00 63 1014.6
20260905030248 76 153 9.0 11.0 0.00 0.00 0.00 63 1014.5
20260905030145 75 154 8.0 11.0 0.00 0.00 0.00 63 1014.5
20260905025650 75 157 8.0 11.0 0.00 0.00 0.00 64 1014.5
20260905025247 75 165 7.0 10.0 0.00 0.00 0.00 65 1014.5
20260905025159 75 167 7.0 10.0 0.00 0.00 0.00 65 1014.4
20260905024649 76 160 7.0 11.0 0.00 0.00 0.00 66 1014.4
20260905024245 76 143 9.0 11.0 0.00 0.00 0.00 65 1014.3
20260905024154 76 136 8.0 11.0 0.00 0.00 0.00 65 1014.3
20260905023643 76 142 7.0 11.0 0.00 0.00 0.00 63 1014.2
20260905023301 76 147 8.0 10.0 0.00 0.00 0.00 63 1014.0
20260905023153 76 151 6.0 8.0 0.00 0.00 0.00 63 1014.0
20260905022642 76 155 6.0 9.0 0.00 0.00 0.00 63 1014.0
20260905022259 76 154 6.0 10.0 0.00 0.00 0.00 63 1014.0
20260905022151 76 135 6.0 10.0 0.00 0.00 0.00 63 1014.0
20260905021641 76 151 7.0 11.0 0.00 0.00 0.00 63 1013.9
20260905021317 76 146 7.0 11.0 0.00 0.00 0.00 63 1013.8
20260905021149 76 154 8.0 11.0 0.00 0.00 0.00 62 1013.8
20260905020639 77 146 8.0 13.0 0.00 0.00 0.00 62 1013.8
20260905020255 77 145 8.0 13.0 0.00 0.00 0.00 61 1013.7
20260905020207 77 155 8.0 13.0 0.00 0.00 0.00 61 1013.7
20260905015658 78 142 10.0 11.0 0.00 0.00 0.00 60 1013.5
20260905015249 79 145 7.0 11.0 0.00 0.00 0.00 60 1013.5
20260905015146 79 140 6.0 10.0 0.00 0.00 0.00 59 1013.5
20260905014716 79 142 6.0 10.0 0.00 0.00 0.00 58 1013.4
20260905014252 80 147 2.0 8.0 0.00 0.00 0.00 59 1013.3
20260905014144 80 150 3.0 8.0 0.00 0.00 0.00 58 1013.3
20260905013654 81 130 2.0 4.0 0.00 0.00 0.00 58 1013.4
20260905013251 81 94 2.0 4.0 0.00 0.00 0.00 56 1013.4
20260905013145 81 82 2.0 4.0 0.00 0.00 0.00 56 1013.4
20260905012655 82 149 0.0 2.0 0.00 0.00 0.00 54 1013.4
20260905012312 83 149 1.0 3.0 0.00 0.00 0.00 52 1013.3
20260905012203 83 149 1.0 5.0 0.00 0.00 0.00 52 1013.3
20260905011652 83 149 2.0 8.0 0.00 0.00 0.00 51 1013.3
20260905011249 83 157 4.0 8.0 0.00 0.00 0.00 51 1013.3
20260905011142 83 165 4.0 13.0 0.00 0.00 0.00 51 1013.2
20260905010652 84 172 7.0 13.0 0.00 0.00 0.00 50 1013.1
20260905010250 84 169 8.0 11.0 0.00 0.00 0.00 50 1012.9
20260905010147 84 186 7.0 11.0 0.00 0.00 0.00 50 1013.0
20260905005658 85 204 6.0 10.0 0.00 0.00 0.00 50 1012.9
20260905005252 85 196 6.0 10.0 0.00 0.00 0.00 49 1012.8
20260905005146 85 218 7.0 10.0 0.00 0.00 0.00 48 1012.8
20260905004714 86 168 7.0 13.0 0.00 0.00 0.00 47 1012.8
20260905004247 86 206 8.0 13.0 0.00 0.00 0.00 47 1012.9
20260905004140 86 200 7.0 13.0 0.00 0.00 0.00 46 1012.9
20260905003650 87 188 7.0 16.0 0.00 0.00 0.00 47 1013.0
20260905003246 87 175 9.0 18.0 0.00 0.00 0.00 45 1012.9
20260905003157 87 221 11.0 18.0 0.00 0.00 0.00 45 1012.9
20260905002645 87 210 12.0 18.0 0.00 0.00 0.00 47 1013.0
20260905002305 87 191 12.0 20.0 0.00 0.00 0.00 46 1013.0
20260905002153 87 199 13.0 20.0 0.00 0.00 0.00 46 1013.0
20260905001644 88 184 15.0 31.0 0.00 0.00 0.00 44 1013.0
20260905001241 88 181 20.0 31.0 0.00 0.00 0.00 44 1012.9
20260905001158 88 215 22.0 32.0 0.00 0.00 0.00 44 1012.9
20260905000648 89 178 20.0 34.0 0.00 0.00 0.00 43 1012.7
20260905000244 90 175 17.0 26.0 0.00 0.00 0.00 41 1012.8
20260905000157 91 177 17.0 26.0 0.00 0.00 0.00 41 1012.9
20260904235706 92 190 16.0 28.0 0.00 0.00 0.00 40 1012.8
20260904235242 93 184 7.0 15.0 0.00 0.00 0.00 40 1012.7
20260904235154 93 124 7.0 12.0 0.00 0.00 0.00 40 1012.6
20260904234644 93 154 8.0 12.0 0.00 0.00 0.00 38 1012.4
20260904234240 93 172 6.0 11.0 0.00 0.00 0.00 39 1012.4
20260904234154 93 142 6.0 11.0 0.00 0.00 0.00 39 1012.4
20260904233643 93 158 5.0 11.0 0.00 0.00 0.00 38 1012.4
20260904233239 94 348 3.0 9.0 0.00 0.00 0.00 38 1012.4
20260904233152 94 167 4.0 9.0 0.00 0.00 0.00 38 1012.4
20260904232640 94 167 4.0 8.0 0.00 0.00 0.00 39 1012.4
20260904232256 94 187 4.0 8.0 0.00 0.00 0.00 39 1012.4
20260904232149 94 134 5.0 8.0 0.00 0.00 0.00 37 1012.4
20260904231643 94 159 6.0 8.0 0.00 0.00 0.00 37 1012.5
20260904231241 95 143 3.0 7.0 0.00 0.00 0.00 37 1012.4
20260904231153 95 144 2.0 7.0 0.00 0.00 0.00 37 1012.4
20260904230642 95 240 3.0 7.0 0.00 0.00 0.00 36 1012.3
20260904230238 96 134 2.0 3.0 0.00 0.00 0.00 37 1012.2
20260904230152 96 155 2.0 3.0 0.00 0.00 0.00 36 1012.2
20260904225642 96 225 1.0 3.0 0.00 0.00 0.00 33 1012.1
20260904225238 96 225 0.0 5.0 0.00 0.00 0.00 35 1012.1
20260904225151 96 225 0.0 5.0 0.00 0.00 0.00 35 1012.0
20260904224641 97 225 4.0 5.0 0.00 0.00 0.00 34 1012.0
20260904224239 97 234 2.0 3.0 0.00 0.00 0.00 34 1012.1
20260904224212 97 235 3.0 3.0 0.00 0.00 0.00 33 1012.1
20260904223640 97 215 1.0 5.0 0.00 0.00 0.00 32 1012.1
20260904223257 97 269 3.0 5.0 0.00 0.00 0.00 34 1012.0
20260904223149 97 255 1.0 5.0 0.00 0.00 0.00 32 1012.0
20260904222643 98 270 3.0 7.0 0.00 0.00 0.00 34 1012.1
20260904222240 98 235 4.0 7.0 0.00 0.00 0.00 34 1012.1
20260904222213 98 254 5.0 7.0 0.00 0.00 0.00 34 1012.1
20260904221640 98 229 3.0 5.0 0.00 0.00 0.00 35 1012.1
20260904221312 98 209 4.0 5.0 0.00 0.00 0.00 33 1012.1
20260904221208 98 235 3.0 6.0 0.00 0.00 0.00 32 1012.1
20260904220657 98 260 2.0 7.0 0.00 0.00 0.00 35 1012.1
20260904220314 98 229 4.0 9.0 0.00 0.00 0.00 34 1012.1
20260904220146 98 275 5.0 9.0 0.00 0.00 0.00 36 1012.1
20260904215715 98 231 5.0 9.0 0.00 0.00 0.00 35 1012.1
20260904215250 98 275 5.0 8.0 0.00 0.00 0.00 34 1012.1
20260904215143 98 227 5.0 8.0 0.00 0.00 0.00 33 1012.2
20260904214651 98 298 3.0 10.0 0.00 0.00 0.00 37 1012.1
20260904214247 98 309 4.0 10.0 0.00 0.00 0.00 34 1012.1
20260904214140 98 270 5.0 10.0 0.00 0.00 0.00 34 1012.1
20260904213650 98 177 1.0 4.0 0.00 0.00 0.00 33 1012.1
20260904213247 98 129 2.0 4.0 0.00 0.00 0.00 33 1012.1
20260904213159 98 136 2.0 4.0 0.00 0.00 0.00 33 1012.1
20260904212648 98 281 1.0 5.0 0.00 0.00 0.00 32 1012.1
20260904212245 98 192 3.0 7.0 0.00 0.00 0.00 35 1012.1
20260904212142 98 181 3.0 7.0 0.00 0.00 0.00 34 1012.1